Location: Hilton Head Island
(32.2163°N, 80.7526°W)
Time: 21:50:15
(UTC-04:00)

Vanguard 1 - Pass Details

Date: 16 February 2026
Orbit: 653 x 3818 km, 34.2° (Epoch: 13 March)

Event Time Altitude Azimuth Distance (km) Brightness Sun altitude
Rises 14:00:04 0° 215° (SW) 3,940 14.0 41.4°
Reaches altitude 10° 14:02:28 10° 208° (SSW) 3,259 13.9 41.2°
Maximum altitude 14:10:21 42° 139° (SE) 2,450 12.7 40.4°
Drops below altitude 10° 14:24:12 10° 76° (ENE) 5,659 13.7 38.8°
Sets 14:29:55 0° 71° (ENE) 7,142 14.1 38.1°
